Weather History for LHNY - April, 2014

Change the Weather History Date:

Friday, April 25, 2014

  Actual Average Record
Temperature  
Mean Temperature 60 °F -  
Max Temperature 66 °F - - ()
Min Temperature 55 °F - - ()
Degree Days  
Heating Degree Days 4    
Growing Degree Days 10 (Base 50)    
Moisture  
Dew Point 51 °F    
Average Humidity 64    
Maximum Humidity 86    
Minimum Humidity 44    
Precipitation  
Precipitation 0.00 in - - ()
Sea Level Pressure  
Sea Level Pressure 29.94 in    
Wind  
Wind Speed 8 mph ()    
Max Wind Speed 18 mph    
Max Gust Speed -    
T = Trace of Precipitation, MM = Missing Value Source: Averaged Metar Reports

Daily Weather History Graph

Daily Weather History Graph

Search for Another Location

Airport or City:

Trip Planner

Search our weather history database for the weather conditions in past years. The results will help you decide how hot, cold, wet, or windy it might be!

Date:

Astronomy

Apr. 25, 2014 Rise Set
Actual Time 5:25 AM CEST 7:37 PM CEST
Civil Twilight 4:52 AM CEST 8:11 PM CEST
Nautical Twilight 4:10 AM CEST 8:53 PM CEST
Astronomical Twilight 3:22 AM CEST 9:41 PM CEST
Moon 3:22 AM CEST (4/25) 3:21 PM CEST (4/25)
Length of Visible Light 15h 19m
Length of Day
14h 11m
Waning Crescent, 17% of the Moon is Illuminated
Apr 25
Waning Crescent
Apr 29
New
May 7
First Quarter
May 14
Full
May 21
Last Quarter

Hourly Weather History & Observations

Time (CEST) Temp. Dew Point Humidity Pressure Visibility Wind Dir Wind Speed Gust Speed Precip Events Conditions
12:00 AM 60 °F 53 °F 70% 29.96 in - ENE 4.5 mph - -  
1:00 AM 58 °F 53 °F 77% 29.96 in - ENE 6.7 mph - -  
2:00 AM 56 °F 52 °F 82% 29.95 in - NE 6.7 mph - -  
3:00 AM 55 °F 52 °F 85% 29.95 in - NE 8.9 mph - -  
4:00 AM 55 °F 52 °F 86% 29.94 in - ENE 6.7 mph - -  
5:00 AM 56 °F 52 °F 83% 29.94 in - East 6.7 mph - -  
6:00 AM 58 °F 52 °F 73% 29.95 in - East 6.7 mph - -  
7:00 AM 58 °F 53 °F 79% 29.95 in - East 6.7 mph - -  
8:00 AM 59 °F 54 °F 77% 29.96 in - ENE 6.7 mph - -  
9:00 AM 60 °F 54 °F 76% 29.96 in - ESE 11.2 mph - -  
10:00 AM 61 °F 52 °F 65% 29.97 in - ESE 17.9 mph - -  
11:00 AM 62 °F 51 °F 58% 29.96 in - East 17.9 mph - -  
12:00 PM 62 °F 48 °F 51% 29.96 in - ESE 17.9 mph - -  
1:00 PM 62 °F 49 °F 53% 29.95 in - ESE 15.7 mph - -  
2:00 PM 63 °F 51 °F 56% 29.95 in - ESE 11.2 mph - -  
3:00 PM 63 °F 51 °F 56% 29.94 in - ESE 8.9 mph - -  
4:00 PM 65 °F 52 °F 53% 29.91 in - ESE 6.7 mph - -  
5:00 PM 66 °F 52 °F 52% 29.91 in - East 8.9 mph - -  
6:00 PM 66 °F 52 °F 51% 29.91 in - East 6.7 mph - -  
7:00 PM 66 °F 49 °F 45% 29.90 in - ESE 8.9 mph - -  
8:00 PM 64 °F 47 °F 44% 29.91 in - ESE 8.9 mph - -  
9:00 PM 62 °F 48 °F 49% 29.92 in - ESE 8.9 mph - -  
10:00 PM 60 °F 48 °F 55% 29.93 in - ESE 8.9 mph - -  
11:00 PM 58 °F 48 °F 62% 29.93 in - East 8.9 mph - -